Weather History for Haines, AK

Change the Weather History Date:

Thursday, January 9, 2014

  Actual Average Record
Temperature  
Mean Temperature 34 °F -  
Max Temperature 37 °F 26 °F 44 °F (2002)
Min Temperature 30 °F 19 °F -5 °F (1983)
Degree Days  
Heating Degree Days 32    
Moisture  
Dew Point 31 °F    
Average Humidity 95    
Maximum Humidity 100    
Minimum Humidity 89    
Precipitation  
Precipitation 0.17 in - - ()
Sea Level Pressure  
Sea Level Pressure 29.24 in    
Wind  
Wind Speed 4 mph (WNW)    
Max Wind Speed 13 mph    
Max Gust Speed 22 mph    
Visibility 6 miles    
Events Snow    
Averages and records for this station are not official NWS values.
T = Trace of Precipitation, MM = Missing Value Source: NWS Daily Summary

Daily Weather History Graph

Daily Weather History Graph

Search for Another Location

Airport:

Trip Planner

Search our weather history database for the weather conditions in past years. The results will help you decide how hot, cold, wet, or windy it might be!

Date:

Astronomy

Jan. 09, 2014 Rise Set
Actual Time 8:51 AM AKST 3:27 PM AKST
Civil Twilight 7:58 AM AKST 4:20 PM AKST
Nautical Twilight 7:05 AM AKST 5:13 PM AKST
Astronomical Twilight 6:15 AM AKST 6:03 PM AKST
Moon 11:33 AM AKST (1/9) 2:28 AM AKST (1/9)
Length of Visible Light 8h 21m
Length of Day
6h 36m
Waxing Gibbous, 67% of the Moon is Illuminated
Jan 9
Waxing Gibbous
Jan 15
Full
Jan 23
Last Quarter
Jan 30
New
Feb 6
First Quarter

Hourly Weather History & Observations

Time (AKST) Temp. Windchill Dew Point Humidity Pressure Visibility Wind Dir Wind Speed Gust Speed Precip Events Conditions
12:01 AM 30.9 °F 26.2 °F 30.9 °F 100% 29.19 in 1.2 mi WNW 4.6 mph - 0.01 in Snow Light Snow
12:54 AM 32.0 °F 28.7 °F 30.0 °F 92% 29.19 in 1.2 mi WNW 3.5 mph - 0.05 in Snow Light Snow
1:41 AM 32.0 °F - 30.9 °F 96% 29.17 in 1.5 mi Calm Calm - 0.04 in Snow Light Snow
1:54 AM 30.9 °F 26.2 °F 30.9 °F 100% 29.18 in 1.2 mi WNW 4.6 mph - 0.04 in Snow Light Snow
2:10 AM 30.9 °F - 30.0 °F 96% 29.17 in 1.5 mi Calm Calm - 0.01 in Snow Light Snow
2:23 AM 30.9 °F 26.2 °F 30.0 °F 96% 29.17 in 1.8 mi West 4.6 mph - 0.02 in Snow Light Snow
2:49 AM 30.2 °F 26.7 °F 30.2 °F 100% 29.17 in 2.0 mi WNW 3.5 mph - 0.03 in Snow Light Snow
2:54 AM 30.9 °F 26.2 °F 30.0 °F 96% 29.17 in 2.5 mi WNW 4.6 mph - 0.03 in Snow Light Snow
3:41 AM 30.9 °F 26.2 °F 30.0 °F 96% 29.17 in 2.0 mi West 4.6 mph - 0.01 in Snow Light Snow
3:54 AM 30.9 °F - 30.9 °F 100% 29.18 in 2.0 mi Calm Calm - 0.01 in Snow Light Snow
4:07 AM 30.9 °F 27.5 °F 30.0 °F 96% 29.17 in 2.0 mi West 3.5 mph - 0.01 in Snow Light Snow
4:18 AM 30.9 °F - 30.0 °F 96% 29.17 in 2.0 mi Calm Calm - 0.01 in Snow Light Snow
4:41 AM 30.9 °F - 30.9 °F 100% 29.17 in 3.0 mi Calm Calm - 0.01 in Snow Light Snow
4:54 AM 30.9 °F - 30.0 °F 96% 29.17 in 3.0 mi Calm Calm - 0.01 in Snow Light Snow
5:08 AM 30.9 °F - 30.9 °F 100% 29.16 in 2.5 mi Calm Calm - 0.01 in Snow Light Snow
5:41 AM 32.0 °F - 30.9 °F 96% 29.17 in 3.0 mi Calm Calm - 0.01 in Snow Light Snow
5:54 AM 30.9 °F - 30.9 °F 100% 29.17 in 4.0 mi Calm Calm - 0.01 in Snow Light Snow
6:08 AM 30.9 °F 27.5 °F 30.0 °F 96% 29.16 in 4.0 mi NW 3.5 mph - 0.00 in Snow Light Snow
6:51 AM 30.2 °F - 30.2 °F 100% 29.17 in 2.5 mi Calm Calm - 0.00 in Snow Light Snow
6:54 AM 30.9 °F - 30.0 °F 96% 29.18 in 2.5 mi Calm Calm - 0.00 in Snow Light Snow
7:28 AM 32.0 °F - 30.9 °F 96% 29.17 in 3.0 mi Calm Calm - 0.01 in Snow Light Snow
7:50 AM 30.2 °F 25.4 °F 30.2 °F 100% 29.18 in 3.0 mi WNW 4.6 mph - 0.02 in Snow Light Snow
7:54 AM 30.9 °F 26.2 °F 30.0 °F 96% 29.19 in 3.0 mi WNW 4.6 mph - 0.02 in Snow Light Snow
8:12 AM 30.9 °F 25.2 °F 30.0 °F 96% 29.19 in 4.0 mi WNW 5.8 mph - 0.00 in Snow Light Snow
8:27 AM 30.9 °F 26.2 °F 30.0 °F 96% 29.19 in 2.5 mi WNW 4.6 mph - 0.00 in Snow Light Snow
8:42 AM 30.9 °F 25.2 °F 30.0 °F 96% 29.19 in 3.0 mi WNW 5.8 mph - 0.00 in Snow Light Snow
8:54 AM 30.9 °F 24.3 °F 30.0 °F 96% 29.21 in 4.0 mi NW 6.9 mph - 0.00 in Snow Light Snow
9:26 AM 30.9 °F 26.2 °F 30.9 °F 100% 29.21 in 2.0 mi WNW 4.6 mph - 0.00 in Snow Light Snow
9:41 AM 32.0 °F 26.4 °F 30.9 °F 96% 29.21 in 4.0 mi WNW 5.8 mph - 0.00 in   Overcast
9:54 AM 32.0 °F 28.7 °F 30.9 °F 96% 29.22 in 5.0 mi Variable 3.5 mph - 0.00 in   Overcast
10:24 AM 32.0 °F - 30.0 °F 92% 29.22 in 10.0 mi Calm Calm - N/A   Overcast
10:54 AM 32.0 °F 24.2 °F 30.0 °F 92% 29.24 in 10.0 mi WNW 9.2 mph - N/A   Overcast
11:32 AM 32.0 °F 27.5 °F 30.9 °F 96% 29.24 in 10.0 mi NW 4.6 mph - N/A   Overcast
11:54 AM 35.1 °F 32.2 °F 33.1 °F 92% 29.25 in 10.0 mi Variable 3.5 mph - N/A   Overcast
12:54 PM 36.0 °F - 33.1 °F 89% 29.27 in 10.0 mi North - - N/A   Overcast
2:54 PM 37.0 °F 28.9 °F 34.0 °F 89% 29.30 in 10.0 mi East 12.7 mph - N/A   Overcast
3:54 PM 37.0 °F 29.3 °F 34.0 °F 89% 29.31 in 10.0 mi ENE 11.5 mph 21.9 mph N/A   Overcast
4:54 PM 37.0 °F 31.6 °F 34.0 °F 89% 29.33 in 10.0 mi East 6.9 mph - N/A   Overcast
5:34 PM 37.0 °F 30.4 °F 34.0 °F 89% 29.31 in 10.0 mi ESE 9.2 mph - N/A   Overcast
5:54 PM 37.0 °F 31.0 °F 34.0 °F 89% 29.33 in 10.0 mi ENE 8.1 mph - N/A   Overcast
6:54 PM 33.1 °F 26.9 °F 30.9 °F 92% 29.33 in 10.0 mi WNW 6.9 mph - N/A   Overcast
7:40 PM 33.1 °F 28.7 °F 30.9 °F 92% 29.33 in 10.0 mi Variable 4.6 mph - N/A   Overcast
7:54 PM 34.0 °F - 32.0 °F 92% 29.34 in 10.0 mi Calm Calm - N/A   Overcast
8:21 PM 34.0 °F 28.0 °F 32.0 °F 92% 29.34 in 10.0 mi West 6.9 mph - N/A   Overcast
8:54 PM 33.1 °F 26.1 °F 30.9 °F 92% 29.36 in 10.0 mi WNW 8.1 mph - N/A   Overcast
9:02 PM 33.1 °F 26.1 °F 30.9 °F 92% 29.36 in 10.0 mi WNW 8.1 mph - N/A   Overcast
9:54 PM 33.1 °F 26.1 °F 32.0 °F 96% 29.37 in 10.0 mi WNW 8.1 mph - N/A   Overcast
10:54 PM 33.1 °F 28.7 °F 30.9 °F 92% 29.39 in 10.0 mi West 4.6 mph - N/A   Overcast
11:39 PM 33.1 °F 26.9 °F 30.9 °F 92% 29.39 in 10.0 mi WNW 6.9 mph - N/A   Overcast
11:54 PM 33.1 °F 28.7 °F 30.9 °F 92% 29.40 in 10.0 mi WNW 4.6 mph - N/A   Overcast